Powrót do katalogu

STARLINK-3270

AktywnyŁącznośćVLEO
NORAD 50199·PAYLOAD·🇺🇸 United States

Wystrzelony Dec 18, 2021 z Vandenberg Space Force Base

Loading…

Następne Przeloty (najbliższe 24 godziny)

TLE

ŚwieżeSource: CelesTrak SupGP

Epoka: Sep 14, 2026, 21:18 UTC

1 50199C 21125AV  26257.88798611  .00001854  00000+0  53035-4 0  2579
2 50199  53.1581  99.8998 0001351  80.2671 246.3247 15.35399142    16

Śledź STARLINK-3270 w czasie rzeczywistym z AllMySat

Download on the App Store